Location: Newark
(46.7000°N, 60.6000°W)
Time: 03:00:17
(UTC+00:00)

Vanguard 3 - Pass Details

Date: 06 November 2020
Orbit: 508 x 3262 km, 33.3° (Epoch: 26 November)

Event Time Altitude Azimuth Distance (km) Brightness Sun altitude
Rises 04:25:01 0° 175° (S) 4,564 - -58.4°
Reaches altitude 10° 04:30:40 10° 147° (SSE) 4,225 - -58.0°
Maximum altitude 04:34:40 12° 127° (SE) 4,449 - -57.8°
Exits shadow 04:38:32 11° 111° (ESE) 4,946 11.1 -57.5°
Drops below altitude 10° 04:39:17 10° 108° (ESE) 5,066 11.2 -57.5°
Sets 04:48:04 0° 85° (E) 6,722 12.1 -56.8°
